Camden, NC

6:44 AM EDT on September 26, 2016 (GMT -0400)
Elizabeth City Cgas-Regional

Weather History for KECG - August, 2013

Change the Weather History Date:

Thursday, August 22, 2013

  Actual Average Record
Temperature  
Mean Temperature 79 °F 77 °F  
Max Temperature 87 °F 86 °F 99 °F (1983)
Min Temperature 71 °F 68 °F 53 °F (2000)
Degree Days  
Heating Degree Days 0 0  
Month to date heating degree days 0 0  
Since 1 June heating degree days 0 3  
Since 1 July heating degree days 0 0  
Cooling Degree Days 14 12  
Month to date cooling degree days 264 288  
Year to date cooling degree days 1290 1192  
Since 1 June cooling degree days 1084 1028  
Growing Degree Days 28 (Base 50)    
Moisture  
Dew Point 73 °F    
Average Humidity 83    
Maximum Humidity 100    
Minimum Humidity 65    
Precipitation  
Precipitation 0.48 in 0.23 in 3.13 in (1981)
Month to date precipitation 5.54 4.77  
Year to date precipitation 29.31 32.09  
Snow  
Snow 0.00 in - 0.00 in (2002)
Month to date snowfall 0.0  
Since 1 July snowfall 0.0  
Snow Depth 0.00 in    
Sea Level Pressure  
Sea Level Pressure 30.07 in    
Wind  
Wind Speed 6 mph (SW)    
Max Wind Speed 14 mph    
Max Gust Speed 17 mph    
Visibility 8 miles    
Events Rain    
T = Trace of Precipitation, MM = Missing Value Source: NWS Daily Summary

Daily Weather History Graph

Daily Weather History Graph

Search for Another Location

Airport or City:

Trip Planner

Search our weather history database for the weather conditions in past years. The results will help you decide how hot, cold, wet, or windy it might be!

Date:

Astronomy

Aug. 22, 2013 Rise Set
Actual Time 6:28 AM EDT 7:45 PM EDT
Civil Twilight 6:01 AM EDT 8:12 PM EDT
Nautical Twilight 5:29 AM EDT 8:44 PM EDT
Astronomical Twilight 4:56 AM EDT 9:17 PM EDT
Moon 8:34 PM EDT (8/22) 8:09 AM EDT (8/22)
Length of Visible Light 14h 11m
Length of Day
13h 17m
Waning Gibbous, 97% of the Moon is Illuminated
Aug 22
Waning Gibbous
Aug 28
Last Quarter
Sep 5
New
Sep 12
First Quarter
Sep 19
Full

Hourly Weather History & Observations

Time (EDT) Temp. Heat Index Dew Point Humidity Pressure Visibility Wind Dir Wind Speed Gust Speed Precip Events Conditions
12:54 AM 75.9 °F - 73.0 °F 91% 30.12 in 10.0 mi SSE 4.6 mph - N/A   Clear
1:54 AM 75.9 °F - 73.9 °F 94% 30.12 in 10.0 mi South 3.5 mph - N/A   Overcast
2:39 AM 75.2 °F - 73.4 °F 94% 30.12 in 9.0 mi SW 9.2 mph - N/A   Overcast
2:47 AM 75.2 °F - 73.4 °F 94% 30.12 in 2.5 mi WSW 13.8 mph - 0.10 in Rain Heavy Rain
2:54 AM 73.9 °F - 72.0 °F 93% 30.12 in 1.2 mi West 6.9 mph - 0.25 in Rain Heavy Rain
2:59 AM 73.4 °F - 71.6 °F 94% 30.12 in 0.8 mi WNW 4.6 mph - 0.14 in Rain Heavy Rain
3:08 AM 73.4 °F - 71.6 °F 94% 30.11 in 1.5 mi Calm Calm - 0.19 in Rain Light Rain
3:11 AM 73.4 °F - 71.6 °F 94% 30.11 in 3.0 mi Calm Calm - 0.20 in Rain Rain
3:54 AM 73.0 °F - 72.0 °F 96% 30.11 in 10.0 mi Calm Calm - 0.23 in   Overcast
4:54 AM 72.0 °F - 71.1 °F 97% 30.10 in 10.0 mi Calm Calm - N/A   Clear
5:54 AM 71.1 °F - 71.1 °F 100% 30.10 in 8.0 mi SW 4.6 mph - N/A   Clear
6:54 AM 72.0 °F - 71.1 °F 97% 30.11 in 10.0 mi SW 3.5 mph - N/A   Clear
7:54 AM 73.9 °F - 71.1 °F 91% 30.11 in 10.0 mi WSW 5.8 mph - N/A   Clear
8:54 AM 78.1 °F - 72.0 °F 81% 30.12 in 10.0 mi West 6.9 mph - N/A   Clear
9:54 AM 81.0 °F 85.8 °F 73.0 °F 77% 30.12 in 10.0 mi West 6.9 mph - N/A   Clear
10:54 AM 82.0 °F 87.9 °F 73.9 °F 76% 30.11 in 10.0 mi WSW 8.1 mph - N/A   Clear
11:54 AM 82.9 °F 90.2 °F 75.0 °F 77% 30.09 in 10.0 mi WSW 6.9 mph - N/A   Clear
12:54 PM 84.0 °F 91.9 °F 75.0 °F 74% 30.07 in 10.0 mi SW 6.9 mph - N/A   Partly Cloudy
1:54 PM 86.0 °F 95.1 °F 75.0 °F 70% 30.05 in 10.0 mi SW 8.1 mph - N/A   Scattered Clouds
2:54 PM 86.0 °F 93.0 °F 73.0 °F 65% 30.03 in 10.0 mi SSW 11.5 mph - N/A   Scattered Clouds
3:54 PM 84.9 °F 90.7 °F 72.0 °F 65% 30.00 in 10.0 mi WSW 9.2 mph - N/A   Scattered Clouds
4:54 PM 86.0 °F 93.0 °F 73.0 °F 65% 29.99 in 10.0 mi SW 6.9 mph - N/A   Partly Cloudy
5:54 PM 84.9 °F 92.1 °F 73.9 °F 69% 29.98 in 10.0 mi SSW 9.2 mph - N/A   Partly Cloudy
6:54 PM 82.0 °F 87.9 °F 73.9 °F 76% 29.98 in 10.0 mi SSW 5.8 mph - N/A   Clear
7:54 PM 80.1 °F 85.1 °F 75.0 °F 85% 29.99 in 10.0 mi South 4.6 mph - N/A   Clear
8:54 PM 77.0 °F - 73.9 °F 90% 30.00 in 10.0 mi SW 5.8 mph - N/A   Clear
9:54 PM 77.0 °F - 73.9 °F 90% 30.01 in 10.0 mi SSW 4.6 mph - N/A   Partly Cloudy
10:54 PM 77.0 °F - 73.9 °F 90% 30.00 in 10.0 mi SW 6.9 mph - N/A   Clear
11:54 PM 75.9 °F - 73.9 °F 94% 30.00 in 10.0 mi SW 5.8 mph - N/A   Mostly Cloudy